QPF
0.00 0.00 0.00 0.00 0.00 0.00 0.00 0.00 0.00 0.02 0.03 0.05 0.11 0.23 0.23 0.15 0.12 0.07 0.05 0.03 0.00 0.00 0.00 0.00 0.00 0.00 0.00 0.00 0.00 0.00 0.00 0.00
0.00 0.00 0.00 0.00 0.00 0.00 0.00 0.00 0.00 0.00 0.00 0.00 0.01 0.03 0.05 0.04 0.01 0.02 0.05 0.07 0.03 0.00 0.00 0.00 0.02 0.00 0.00 0.00 0.00 0.00 0.00 0.00
0.00 0.00 0.00 0.00 0.00 0.00 0.00 0.00 0.00 0.00 0.00 0.00 0.00 0.01 0.02 0.02 0.01 0.01 0.00 0.01 0.02 0.02 0.00 0.00 0.00 0.00 0.00 0.00 0.00 0.00 0.00 0.00
0.00 0.00 0.00 0.00 0.00 0.00 0.00 0.00 0.00 0.00 0.00 0.00 0.00 0.00 0.01 0.02 0.03 0.03 0.01 0.02 0.01 0.01 0.01 0.00 0.00 0.00 0.00 0.00 0.00 0.00 0.01 0.00
0.00 0.00 0.00 0.00 0.00 0.00 0.00 0.00 0.00 0.00 0.00 0.00 0.00 0.00 0.00 0.00 0.00 0.02 0.03 0.06 0.03 0.03 0.06 0.05 0.01 0.01 0.00 0.00 0.00 0.00 0.03 0.02
0.00 0.00 0.00 0.00 0.00 0.00 0.00 0.00 0.00 0.00 0.00 0.00 0.00 0.00 0.00 0.00 0.00 0.00 0.01 0.05 0.12 0.14 0.26 0.32 0.23 0.10 0.02 0.01 0.01 0.01 0.00 0.03
0.00 0.00 0.00 0.00 0.00 0.00 0.00 0.00 0.00 0.00 0.00 0.00 0.00 0.00 0.00 0.00 0.00 0.00 0.01 0.03 0.09 0.21 0.19 0.16 0.16 0.16 0.10 0.03 0.02 0.02 0.03 0.02
0.00 0.00 0.00 0.00 0.00 0.00 0.00 0.00 0.00 0.00 0.00 0.00 0.00 0.00 0.00 0.00 0.00 0.00 0.03 0.06 0.12 0.17 0.19 0.20 0.20 0.20 0.23 0.22 0.13 0.09 0.05 0.05
0.00 0.00 0.00 0.00 0.00 0.00 0.00 0.00 0.00 0.00 0.00 0.00 0.00 0.00 0.00 0.00 0.00 0.01 0.02 0.04 0.14 0.21 0.24 0.31 0.35 0.39 0.39 0.36 0.28 0.24 0.16 0.12
0.00 0.00 0.00 0.00 0.00 0.00 0.00 0.00 0.00 0.00 0.00 0.00 0.00 0.00 0.00 0.01 0.01 0.01 0.06 0.17 0.16 0.17 0.19 0.27 0.37 0.51 0.59 0.62 0.55 0.53 0.54 0.45
0.00 0.00 0.00 0.00 0.00 0.00 0.00 0.00 0.00 0.00 0.00 0.00 0.00 0.01 0.01 0.02 0.01 0.01 0.10 0.17 0.10 0.07 0.08 0.11 0.16 0.39 0.83 1.01 0.97 0.97 1.01 0.74
0.00 0.00 0.00 0.00 0.00 0.00 0.00 0.00 0.00 0.00 0.00 0.00 0.00 0.00 0.01 0.01 0.02 0.02 0.00 0.00 0.02 0.06 0.17 0.25 0.28 0.28 0.39 0.64 0.68 0.83 1.27 1.39
0.00 0.00 0.00 0.00 0.00 0.00 0.00 0.00 0.00 0.00 0.00 0.00 0.01 0.01 0.01 0.02 0.04 0.06 0.01 0.00 0.00 0.05 0.12 0.17 0.22 0.30 0.41 0.43 0.45 0.43 0.60 0.64
0.00 0.00 0.00 0.00 0.00 0.00 0.00 0.00 0.00 0.00 0.00 0.00 0.01 0.02 0.02 0.03 0.04 0.03 0.01 0.00 0.00 0.00 0.01 0.02 0.07 0.23 0.35 0.43 0.47 0.42 0.41 0.34
0.00 0.00 0.00 0.00 0.00 0.00 0.00 0.00 0.00 0.00 0.00 0.00 0.02 0.03 0.04 0.04 0.06 0.07 0.07 0.02 0.00 0.00 0.00 0.02 0.05 0.07 0.08 0.06 0.05 0.07 0.13 0.15
0.00 0.00 0.00 0.00 0.01 0.00 0.00 0.00 0.00 0.00 0.00 0.01 0.02 0.04 0.06 0.06 0.04 0.05 0.04 0.01 0.01 0.00 0.01 0.03 0.06 0.12 0.15 0.15 0.15 0.10 0.07 0.04
0.01 0.00 0.00 0.00 0.01 0.00 0.00 0.00 0.00 0.00 0.00 0.01 0.02 0.05 0.06 0.04 0.06 0.11 0.07 0.02 0.00 0.00 0.01 0.03 0.05 0.07 0.07 0.09 0.11 0.10 0.10 0.08
0.01 0.01 0.00 0.00 0.00 0.00 0.00 0.00 0.00 0.00 0.00 0.02 0.02 0.05 0.04 0.04 0.04 0.03 0.03 0.02 0.00 0.00 0.00 0.00 0.00 0.01 0.02 0.03 0.04 0.03 0.02 0.01
0.05 0.06 0.10 0.04 0.00 0.00 0.00 0.00 0.00 0.00 0.01 0.02 0.02 0.03 0.03 0.03 0.02 0.01 0.01 0.00 0.00 0.00 0.00 0.00 0.00 0.00 0.00 0.01 0.01 0.00 0.00 0.00
MSLP
1010.33 1010.10 1010.18 1010.48 1010.81 1010.97 1011.16 1011.19 1011.04 1011.00 1011.04 1010.47 1009.60 1009.06 1008.50 1007.37 1006.72 1006.11 1005.98 1005.64 1005.53 1005.96 1006.08 1006.11 1006.37 1006.64 1006.74 1006.91 1006.98 1007.37 1007.27 1007.25
1011.02 1011.02 1011.08 1010.87 1011.17 1011.64 1011.92 1011.82 1011.66 1011.31 1011.27 1011.12 1010.69 1010.38 1009.38 1008.08 1007.18 1006.01 1005.40 1005.49 1005.32 1005.06 1004.99 1005.05 1005.18 1005.33 1005.38 1005.73 1006.03 1006.33 1006.50 1006.59
1011.81 1012.00 1011.64 1012.52 1012.32 1012.40 1012.74 1012.65 1012.46 1012.51 1012.32 1012.14 1011.96 1011.22 1009.93 1009.26 1007.98 1007.18 1006.10 1005.09 1004.47 1004.47 1004.07 1003.86 1004.03 1004.29 1004.51 1004.71 1004.97 1005.18 1005.34 1005.58
1012.64 1012.63 1013.31 1013.37 1013.41 1012.92 1013.26 1013.22 1013.22 1013.28 1013.06 1012.45 1011.94 1011.45 1010.79 1009.55 1008.57 1007.65 1006.56 1005.77 1004.38 1003.56 1002.85 1002.71 1002.73 1002.96 1003.13 1003.43 1003.78 1003.98 1004.27 1004.81
1013.55 1013.90 1014.15 1014.43 1014.20 1013.79 1013.49 1013.62 1013.43 1013.59 1013.49 1013.03 1012.91 1012.60 1011.77 1010.97 1009.94 1008.89 1007.71 1006.39 1005.44 1004.00 1002.52 1001.72 1001.77 1001.70 1001.64 1001.88 1002.44 1002.66 1003.34 1003.62
1014.31 1014.38 1014.40 1014.42 1014.30 1014.25 1014.03 1013.78 1013.55 1013.62 1013.64 1013.51 1013.23 1012.86 1012.56 1011.63 1010.57 1009.30 1008.20 1007.19 1006.49 1005.69 1004.57 1003.16 1001.35 1000.67 1000.55 1000.61 1001.08 1001.55 1001.84 1002.31
1015.10 1015.00 1014.96 1014.84 1014.56 1014.26 1014.33 1014.13 1013.84 1014.00 1013.76 1013.43 1013.37 1013.18 1012.49 1011.83 1011.20 1010.15 1008.94 1007.90 1007.12 1006.33 1005.37 1004.35 1003.29 1001.15 999.42 999.59 999.66 1000.04 1000.50 1001.15
1015.29 1015.21 1015.03 1014.76 1014.65 1014.43 1014.33 1014.06 1013.90 1013.92 1013.82 1013.81 1013.56 1013.20 1012.75 1012.33 1012.01 1011.11 1010.04 1008.73 1007.81 1006.79 1005.41 1004.50 1004.37 1003.48 1001.26 999.27 998.92 998.86 999.24 999.85
1015.68 1015.22 1015.05 1014.80 1014.92 1014.87 1014.80 1014.79 1014.76 1014.57 1014.25 1014.36 1014.14 1013.73 1013.14 1012.85 1012.76 1012.17 1011.29 1010.04 1009.14 1008.41 1006.90 1005.18 1004.87 1004.40 1002.71 1002.10 999.71 998.84 998.32 998.75
1016.12 1015.50 1015.09 1015.61 1015.57 1015.71 1015.85 1015.71 1015.49 1015.19 1015.14 1014.74 1014.60 1014.37 1014.11 1013.43 1013.33 1012.99 1012.05 1011.27 1010.38 1009.67 1007.90 1006.66 1005.52 1004.89 1004.63 1003.60 1001.17 1001.67 1000.98 1000.93
1016.09 1016.07 1016.00 1015.81 1015.62 1016.01 1016.10 1015.92 1016.00 1015.98 1015.60 1015.43 1015.08 1014.73 1014.77 1014.22 1013.74 1013.29 1012.82 1011.88 1010.97 1010.09 1009.22 1008.28 1007.92 1005.98 1004.67 1006.72 1003.95 1002.88 1002.68 1003.87
1016.29 1016.16 1016.19 1015.90 1015.80 1016.12 1016.42 1016.38 1016.33 1015.86 1016.12 1016.00 1015.75 1015.63 1015.61 1015.11 1014.65 1013.91 1014.11 1012.74 1011.91 1011.29 1010.26 1009.47 1008.75 1007.94 1007.66 1006.56 1007.86 1005.88 1003.78 1005.96
1016.37 1016.23 1016.13 1016.13 1016.36 1016.73 1016.91 1016.88 1016.79 1017.08 1016.53 1016.33 1016.38 1016.40 1016.45 1016.15 1015.79 1015.42 1014.89 1014.22 1013.11 1012.70 1011.84 1010.87 1010.01 1009.21 1008.35 1008.47 1008.45 1008.72 1007.90 1008.71
1016.44 1016.19 1016.20 1016.27 1016.80 1017.27 1017.42 1017.81 1017.76 1016.93 1016.79 1016.93 1017.29 1017.43 1017.50 1017.36 1016.86 1016.54 1015.87 1015.20 1014.56 1013.79 1013.00 1012.58 1012.12 1011.41 1010.71 1010.24 1009.60 1009.75 1010.12 1009.38
1017.06 1016.68 1016.37 1016.88 1017.07 1017.72 1017.69 1018.47 1018.49 1018.30 1018.08 1018.06 1018.48 1018.78 1018.94 1018.55 1018.19 1017.44 1017.12 1016.46 1015.90 1015.29 1014.78 1014.32 1013.63 1013.04 1012.72 1011.90 1011.17 1010.94 1011.12 1011.58
1018.89 1018.33 1016.99 1017.35 1018.07 1018.98 1018.88 1019.46 1019.16 1019.15 1019.10 1019.14 1019.60 1019.98 1019.91 1019.64 1019.25 1018.80 1018.37 1017.76 1017.41 1016.56 1016.08 1015.70 1015.03 1014.54 1014.40 1013.94 1013.29 1012.92 1012.87 1013.14
1021.34 1020.21 1019.01 1018.89 1018.93 1019.34 1019.98 1020.06 1020.14 1020.01 1020.12 1020.16 1020.49 1020.87 1020.81 1020.46 1020.13 1019.66 1019.28 1018.66 1018.29 1018.05 1017.35 1017.09 1016.47 1016.21 1015.72 1015.47 1014.77 1014.31 1014.37 1014.36
1020.53 1020.94 1020.46 1020.30 1020.24 1020.25 1020.58 1020.85 1021.12 1020.95 1021.13 1021.09 1021.35 1021.68 1021.57 1021.35 1020.98 1020.60 1020.08 1019.61 1019.18 1019.34 1018.70 1018.32 1017.75 1017.33 1016.64 1016.06 1015.41 1014.99 1015.07 1015.43
1020.73 1020.79 1020.98 1021.65 1021.87 1021.59 1021.55 1021.73 1021.88 1021.94 1022.11 1022.10 1022.30 1022.50 1022.36 1022.07 1021.51 1021.06 1020.66 1020.35 1020.31 1020.21 1019.94 1019.62 1019.09 1018.72 1018.30 1017.54 1017.02 1016.15 1016.25 1016.21
Thickness
5715 5716 5713 5709 5705 5700 5695 5693 5691 5689 5685 5688 5696 5701 5706 5715 5716 5716 5722 5723 5728 5727 5728 5728 5724 5721 5720 5719 5717 5715 5718 5719
5702 5700 5696 5697 5693 5687 5678 5677 5677 5678 5673 5671 5673 5675 5684 5698 5707 5716 5719 5713 5714 5722 5724 5725 5723 5721 5721 5719 5715 5711 5710 5714
5688 5684 5683 5675 5675 5671 5663 5660 5660 5657 5655 5653 5651 5655 5665 5670 5684 5692 5703 5710 5712 5712 5718 5723 5721 5718 5716 5716 5713 5709 5709 5709
5669 5668 5658 5656 5654 5654 5649 5645 5644 5639 5637 5640 5641 5642 5645 5655 5661 5670 5682 5689 5701 5707 5712 5716 5717 5715 5714 5713 5710 5708 5703 5703
5652 5644 5637 5634 5633 5635 5634 5628 5628 5624 5620 5622 5621 5621 5625 5628 5635 5643 5653 5663 5671 5687 5699 5705 5705 5708 5710 5712 5708 5706 5699 5697
5632 5626 5620 5617 5616 5616 5616 5613 5609 5607 5606 5606 5604 5603 5602 5609 5615 5624 5632 5640 5641 5646 5659 5675 5686 5694 5701 5704 5702 5700 5700 5695
5613 5608 5604 5599 5597 5598 5596 5595 5592 5588 5590 5590 5585 5582 5585 5590 5593 5600 5610 5617 5621 5625 5632 5643 5653 5672 5677 5693 5697 5694 5695 5691
5595 5590 5585 5584 5581 5577 5576 5577 5580 5572 5563 5561 5562 5565 5566 5568 5571 5577 5584 5593 5597 5605 5615 5625 5625 5635 5656 5673 5682 5683 5686 5686
5583 5576 5569 5565 5561 5555 5549 5550 5546 5543 5534 5531 5531 5536 5543 5544 5546 5552 5557 5565 5571 5577 5589 5603 5608 5611 5624 5632 5656 5664 5672 5677
5568 5566 5558 5540 5540 5535 5528 5522 5514 5510 5498 5502 5507 5502 5508 5519 5523 5528 5535 5539 5545 5551 5567 5576 5586 5591 5593 5600 5627 5618 5633 5628
5556 5549 5539 5528 5523 5519 5515 5503 5490 5482 5475 5474 5476 5479 5483 5493 5501 5509 5513 5519 5524 5535 5542 5550 5546 5567 5577 5559 5569 5587 5591 5579
5541 5532 5524 5512 5504 5502 5496 5484 5475 5469 5455 5450 5447 5447 5453 5468 5476 5488 5487 5499 5503 5513 5521 5526 5532 5538 5537 5540 5535 5546 5570 5551
5525 5516 5510 5494 5487 5481 5473 5461 5458 5443 5441 5437 5431 5429 5430 5441 5452 5461 5470 5473 5480 5489 5495 5502 5511 5515 5524 5519 5517 5512 5524 5519
5509 5499 5489 5479 5468 5457 5448 5439 5437 5437 5433 5424 5416 5413 5413 5417 5429 5437 5446 5453 5458 5469 5475 5477 5482 5489 5494 5499 5502 5500 5498 5508
5484 5476 5471 5461 5455 5441 5433 5424 5421 5417 5414 5408 5399 5395 5395 5399 5407 5418 5426 5434 5436 5446 5450 5455 5461 5467 5469 5476 5481 5482 5483 5480
5455 5453 5454 5452 5436 5422 5417 5409 5408 5404 5399 5393 5385 5380 5381 5384 5389 5396 5405 5411 5416 5425 5432 5436 5441 5446 5448 5451 5455 5458 5458 5459
5421 5424 5433 5431 5424 5414 5403 5398 5393 5391 5384 5380 5374 5368 5368 5373 5376 5383 5389 5397 5404 5406 5413 5417 5422 5425 5428 5430 5435 5437 5438 5439
5415 5406 5411 5411 5404 5400 5392 5385 5379 5376 5371 5367 5362 5357 5358 5361 5365 5369 5375 5382 5389 5388 5396 5400 5405 5409 5414 5418 5421 5425 5424 5422
5402 5401 5395 5392 5385 5383 5380 5373 5365 5362 5358 5355 5351 5347 5347 5351 5357 5361 5366 5370 5373 5376 5380 5383 5389 5392 5394 5400 5403 5410 5410 5411